EZY39H EGNX-BIKF

Flight info

Callsign EZY39H
Flight time N/A
Altitude 36000
Route TNT N57 POL UN601 RIBEL DCT ORSUM DCT BARKU DCT RATSU/M077F360 DCT ALDAN DCT ASRUN ASRUN4N
Aircraft A320/M-SDE3FGHIRWY/LB1

Departure

Time 2026-05-06 07:17
Airport East Midlands Airport (EGNX)

Arrival

Time N/A
Airport Keflavik International Airport (BIKF)
Time Latitude Longitude Altitude Speed Heading
2026-05-06 07:02 52.82864 -1.33005 301 ft 0 kts 358°
2026-05-06 07:12 52.82867 -1.33005 300 ft 2 kts 356°
2026-05-06 07:12 52.82879 -1.33030 302 ft 5 kts 294°
2026-05-06 07:12 52.82880 -1.33087 302 ft 4 kts 266°
2026-05-06 07:12 52.82890 -1.33148 302 ft 6 kts 308°
2026-05-06 07:13 52.82919 -1.33203 304 ft 10 kts 295°
2026-05-06 07:13 52.82921 -1.33327 307 ft 11 kts 268°
2026-05-06 07:13 52.82918 -1.33464 305 ft 14 kts 268°
2026-05-06 07:13 52.82915 -1.33640 306 ft 15 kts 269°
2026-05-06 07:14 52.82912 -1.33801 305 ft 12 kts 268°
2026-05-06 07:14 52.82910 -1.33935 304 ft 13 kts 268°
2026-05-06 07:14 52.82906 -1.34117 304 ft 18 kts 268°
2026-05-06 07:14 52.82907 -1.34321 305 ft 16 kts 271°
2026-05-06 07:15 52.82906 -1.34497 305 ft 17 kts 268°
2026-05-06 07:15 52.82902 -1.34693 304 ft 17 kts 268°
2026-05-06 07:15 52.82898 -1.34862 306 ft 11 kts 268°
2026-05-06 07:15 52.82943 -1.34935 306 ft 10 kts 358°
2026-05-06 07:16 52.83017 -1.34939 305 ft 12 kts 358°
2026-05-06 07:16 52.83063 -1.34853 306 ft 13 kts 86°
2026-05-06 07:16 52.83064 -1.34779 302 ft 0 kts 88°
2026-05-06 07:16 52.83066 -1.34704 304 ft 30 kts 87°
2026-05-06 07:17 52.83083 -1.33929 305 ft 100 kts 88°
2026-05-06 07:17 52.83110 -1.32457 302 ft 154 kts 89°
2026-05-06 07:17 52.83141 -1.30481 515 ft 181 kts 86°
2026-05-06 07:17 52.83124 -1.28367 1271 ft 184 kts 89°
2026-05-06 07:18 52.83025 -1.26222 1939 ft 193 kts 87°
2026-05-06 07:18 52.83190 -1.23945 2245 ft 208 kts 70°
2026-05-06 07:18 52.83868 -1.21741 2552 ft 227 kts 50°
2026-05-06 07:18 52.85077 -1.19956 3093 ft 238 kts 30°
2026-05-06 07:19 52.86634 -1.18990 3872 ft 243 kts
2026-05-06 07:19 52.88335 -1.19022 4708 ft 247 kts 348°
2026-05-06 07:19 52.89926 -1.20105 5505 ft 252 kts 327°
2026-05-06 07:19 52.91186 -1.22148 6121 ft 258 kts 305°
2026-05-06 07:20 52.91869 -1.24896 6969 ft 263 kts 284°
2026-05-06 07:20 52.91865 -1.27960 7694 ft 273 kts 258°
2026-05-06 07:20 52.91221 -1.30968 8425 ft 278 kts 256°
2026-05-06 07:20 52.91113 -1.34091 9121 ft 275 kts 287°
2026-05-06 07:21 52.91908 -1.36964 9836 ft 276 kts 304°
2026-05-06 07:21 52.93076 -1.39541 10290 ft 288 kts 310°
2026-05-06 07:21 52.94431 -1.42171 10441 ft 311 kts 311°
2026-05-06 07:21 52.95884 -1.44990 10561 ft 333 kts 310°
2026-05-06 07:22 52.97395 -1.48066 10813 ft 349 kts 308°
2026-05-06 07:22 52.98877 -1.51281 11354 ft 355 kts 306°
2026-05-06 07:22 53.00327 -1.54629 11986 ft 357 kts 305°
2026-05-06 07:22 53.01736 -1.58015 12676 ft 358 kts 304°
2026-05-06 07:23 53.03146 -1.61459 13298 ft 361 kts 304°
2026-05-06 07:23 53.04759 -1.64689 13876 ft 366 kts 315°
2026-05-06 07:23 53.06753 -1.67351 14384 ft 370 kts 326°
2026-05-06 07:23 53.09059 -1.69284 14931 ft 375 kts 338°
2026-05-06 07:24 53.11518 -1.70783 15460 ft 378 kts 338°
2026-05-06 07:24 53.13969 -1.72286 15972 ft 381 kts 338°
2026-05-06 07:24 53.16465 -1.73829 16500 ft 384 kts 338°
2026-05-06 07:24 53.19011 -1.75412 17028 ft 387 kts 338°
2026-05-06 07:25 53.21549 -1.76999 17535 ft 391 kts 338°
2026-05-06 07:25 53.23235 -1.78051 17881 ft 393 kts 338°
2026-05-06 07:25 53.25812 -1.79658 18399 ft 396 kts 338°
2026-05-06 07:25 53.28405 -1.81276 18839 ft 399 kts 338°
2026-05-06 07:26 53.31014 -1.82907 19264 ft 402 kts 338°
2026-05-06 07:26 53.33637 -1.84546 19684 ft 405 kts 337°
2026-05-06 07:26 53.36283 -1.86205 20112 ft 407 kts 337°
2026-05-06 07:26 53.38944 -1.87879 20540 ft 410 kts 337°
2026-05-06 07:27 53.41621 -1.89569 20947 ft 412 kts 337°
2026-05-06 07:27 53.44311 -1.91267 21325 ft 415 kts 337°
2026-05-06 07:27 53.47021 -1.92976 21709 ft 417 kts 337°
2026-05-06 07:27 53.49749 -1.94696 22078 ft 420 kts 337°
2026-05-06 07:28 53.52486 -1.96423 22454 ft 422 kts 337°
2026-05-06 07:28 53.55239 -1.98163 22820 ft 424 kts 337°
2026-05-06 07:28 53.60790 -2.01679 23518 ft 429 kts 337°
2026-05-06 07:29 53.63591 -2.03453 23815 ft 431 kts 337°
2026-05-06 07:29 53.66408 -2.05239 24095 ft 433 kts 337°
2026-05-06 07:29 53.69225 -2.07033 24377 ft 434 kts 337°
2026-05-06 07:29 53.72049 -2.08834 24667 ft 436 kts 337°
2026-05-06 07:30 53.74897 -2.10650 24964 ft 437 kts 336°
2026-05-06 07:30 53.77732 -2.12509 25229 ft 438 kts 336°
2026-05-06 07:30 53.80561 -2.14430 25483 ft 440 kts 335°
2026-05-06 07:30 53.83395 -2.16396 25744 ft 441 kts 335°
2026-05-06 07:31 53.86239 -2.18377 25991 ft 442 kts 335°
2026-05-06 07:31 53.89089 -2.20355 26232 ft 444 kts 335°
2026-05-06 07:31 53.91955 -2.22334 26463 ft 445 kts 335°
2026-05-06 07:31 53.94834 -2.24315 26687 ft 447 kts 335°
2026-05-06 07:32 53.97712 -2.26287 26921 ft 448 kts 335°
2026-05-06 07:32 54.00601 -2.28269 27125 ft 449 kts 334°
2026-05-06 07:32 54.03427 -2.30596 27322 ft 448 kts 329°
2026-05-06 07:32 54.06177 -2.33099 27517 ft 450 kts 329°
2026-05-06 07:33 54.08903 -2.35581 27714 ft 451 kts 329°
2026-05-06 07:33 54.11699 -2.38128 27982 ft 450 kts 329°
2026-05-06 07:33 54.14452 -2.40634 28260 ft 449 kts 329°
2026-05-06 07:33 54.17213 -2.43152 28535 ft 448 kts 329°
2026-05-06 07:34 54.19920 -2.45628 28795 ft 448 kts 329°
2026-05-06 07:34 54.22660 -2.48139 29085 ft 447 kts 328°
2026-05-06 07:34 54.25404 -2.50653 29372 ft 446 kts 328°
2026-05-06 07:34 54.28139 -2.53161 29639 ft 446 kts 328°
2026-05-06 07:35 54.30869 -2.55666 29905 ft 445 kts 328°
2026-05-06 07:35 54.33595 -2.58172 30186 ft 444 kts 328°
2026-05-06 07:35 54.36352 -2.60718 30410 ft 444 kts 328°
2026-05-06 07:35 54.39026 -2.63196 30627 ft 444 kts 328°
2026-05-06 07:36 54.41742 -2.65718 30862 ft 443 kts 328°
2026-05-06 07:36 54.44455 -2.68236 31098 ft 443 kts 328°
2026-05-06 07:36 54.47164 -2.70751 31342 ft 442 kts 328°
2026-05-06 07:36 54.49867 -2.73263 31559 ft 442 kts 328°
2026-05-06 07:37 54.52566 -2.75775 31782 ft 441 kts 328°
2026-05-06 07:37 54.55265 -2.78290 31991 ft 441 kts 328°
2026-05-06 07:37 54.57968 -2.80811 32200 ft 441 kts 328°
2026-05-06 07:37 54.60659 -2.83322 32418 ft 440 kts 328°
2026-05-06 07:38 54.63356 -2.85846 32626 ft 440 kts 328°
2026-05-06 07:38 54.66044 -2.88370 32832 ft 440 kts 328°
2026-05-06 07:38 54.68730 -2.90898 33046 ft 440 kts 328°
2026-05-06 07:38 54.71414 -2.93430 33254 ft 439 kts 328°
2026-05-06 07:39 54.74096 -2.95962 33499 ft 439 kts 328°
2026-05-06 07:39 54.76776 -2.98490 33709 ft 439 kts 328°
2026-05-06 07:39 54.79457 -3.01017 33921 ft 438 kts 328°
2026-05-06 07:39 54.82131 -3.03546 34119 ft 438 kts 328°
2026-05-06 07:40 54.84800 -3.06080 34290 ft 438 kts 328°
2026-05-06 07:40 54.87469 -3.08616 34451 ft 438 kts 328°
2026-05-06 07:40 54.90142 -3.11158 34610 ft 438 kts 328°
2026-05-06 07:40 54.92816 -3.13701 34767 ft 438 kts 328°
2026-05-06 07:41 54.95487 -3.16243 34920 ft 438 kts 328°
2026-05-06 07:41 54.98159 -3.18791 35085 ft 438 kts 328°
2026-05-06 07:41 55.00831 -3.21344 35217 ft 438 kts 328°
2026-05-06 07:41 55.03499 -3.23904 35357 ft 438 kts 328°
2026-05-06 07:42 55.06173 -3.26480 35497 ft 438 kts 328°
2026-05-06 07:42 55.08842 -3.29053 35630 ft 438 kts 328°
2026-05-06 07:42 55.11511 -3.31623 35772 ft 438 kts 328°
2026-05-06 07:42 55.14180 -3.34193 35905 ft 438 kts 328°
2026-05-06 07:43 55.16841 -3.36764 36060 ft 437 kts 328°
2026-05-06 07:43 55.19473 -3.39315 36103 ft 439 kts 328°
2026-05-06 07:43 55.24826 -3.44501 36103 ft 440 kts 328°
2026-05-06 07:44 55.30172 -3.49697 36109 ft 439 kts 328°
2026-05-06 07:44 55.35517 -3.54916 36107 ft 439 kts 328°
2026-05-06 07:45 55.40858 -3.60149 36108 ft 439 kts 327°
2026-05-06 07:45 55.46198 -3.65391 36112 ft 440 kts 328°
2026-05-06 07:46 55.51535 -3.70648 36135 ft 440 kts 327°
2026-05-06 07:46 55.56873 -3.75925 36134 ft 439 kts 327°
2026-05-06 07:47 55.62205 -3.81209 36127 ft 439 kts 327°
2026-05-06 07:47 55.67535 -3.86502 36127 ft 439 kts 327°
2026-05-06 07:48 55.72863 -3.91809 36144 ft 439 kts 327°
2026-05-06 07:48 55.78186 -3.97129 36133 ft 439 kts 327°
2026-05-06 07:49 55.83492 -4.02472 36132 ft 438 kts 327°
2026-05-06 07:49 55.88794 -4.07809 36130 ft 438 kts 327°
2026-05-06 07:50 55.94091 -4.13146 36127 ft 438 kts 327°
2026-05-06 07:50 55.99389 -4.18512 36125 ft 438 kts 327°
2026-05-06 07:51 56.04658 -4.23865 36124 ft 437 kts 327°
2026-05-06 07:51 56.09947 -4.29265 36125 ft 437 kts 327°
2026-05-06 07:52 56.15192 -4.34642 36117 ft 437 kts 327°
2026-05-06 07:52 56.20503 -4.40090 36116 ft 437 kts 327°
2026-05-06 07:53 56.25747 -4.45493 36141 ft 437 kts 327°
2026-05-06 07:53 56.31020 -4.50935 36133 ft 437 kts 327°
2026-05-06 07:54 56.36288 -4.56381 36123 ft 437 kts 327°
2026-05-06 07:54 56.41587 -4.61885 36119 ft 436 kts 327°
2026-05-06 07:55 56.46809 -4.67344 36128 ft 436 kts 327°
2026-05-06 07:55 56.52092 -4.72879 36141 ft 436 kts 327°
2026-05-06 07:56 56.57334 -4.78376 36136 ft 435 kts 327°
2026-05-06 07:56 56.62569 -4.83887 36132 ft 435 kts 327°
2026-05-06 07:57 56.67769 -4.89376 36127 ft 435 kts 327°
2026-05-06 07:57 56.73025 -4.94952 36126 ft 435 kts 327°
2026-05-06 07:58 56.78211 -5.00460 36137 ft 434 kts 327°
2026-05-06 07:58 56.83418 -5.06010 36129 ft 433 kts 327°
2026-05-06 07:59 56.88617 -5.11581 36124 ft 433 kts 327°
2026-05-06 07:59 56.93815 -5.17154 36119 ft 433 kts 327°
2026-05-06 08:00 56.99015 -5.22750 36116 ft 433 kts 327°
2026-05-06 08:00 57.04202 -5.28359 36137 ft 433 kts 326°
2026-05-06 08:01 57.09408 -5.33891 36126 ft 432 kts 328°
2026-05-06 08:01 57.14657 -5.39262 36124 ft 431 kts 328°
2026-05-06 08:02 57.19898 -5.44637 36119 ft 430 kts 328°
2026-05-06 08:02 57.25113 -5.50042 36116 ft 430 kts 327°
2026-05-06 08:03 57.30315 -5.55477 36132 ft 429 kts 327°
2026-05-06 08:03 57.35514 -5.60901 36126 ft 429 kts 327°
2026-05-06 08:04 57.40706 -5.66337 36117 ft 428 kts 327°
2026-05-06 08:04 57.45893 -5.71786 36104 ft 428 kts 327°
2026-05-06 08:05 57.51067 -5.77251 36099 ft 428 kts 327°
2026-05-06 08:05 57.56236 -5.82732 36120 ft 428 kts 327°
2026-05-06 08:06 57.61405 -5.88233 36115 ft 427 kts 327°
2026-05-06 08:06 57.66564 -5.93733 36110 ft 427 kts 327°
2026-05-06 08:07 57.71724 -5.99248 36105 ft 427 kts 327°
2026-05-06 08:07 57.76878 -6.04788 36102 ft 427 kts 327°
2026-05-06 08:08 57.82023 -6.10339 36118 ft 427 kts 326°
2026-05-06 08:08 57.87130 -6.15864 36110 ft 426 kts 326°
2026-05-06 08:09 57.92292 -6.21460 36107 ft 426 kts 326°
2026-05-06 08:09 57.97422 -6.27033 36103 ft 425 kts 326°
2026-05-06 08:10 58.02538 -6.32615 36101 ft 425 kts 326°
2026-05-06 08:10 58.07653 -6.38221 36116 ft 425 kts 326°
2026-05-06 08:11 58.12730 -6.43804 36109 ft 425 kts 326°
2026-05-06 08:11 58.17839 -6.49437 36103 ft 425 kts 326°
2026-05-06 08:12 58.22110 -6.54153 36098 ft 424 kts 326°
2026-05-06 08:12 58.27208 -6.59802 36100 ft 424 kts 326°
2026-05-06 08:13 58.32301 -6.65474 36106 ft 424 kts 326°
2026-05-06 08:13 58.37354 -6.71116 36101 ft 423 kts 325°
2026-05-06 08:14 58.42430 -6.76808 36094 ft 424 kts 325°
2026-05-06 08:14 58.47512 -6.82517 36089 ft 424 kts 325°
2026-05-06 08:15 58.52591 -6.88246 36086 ft 424 kts 325°
2026-05-06 08:15 58.57668 -6.93987 36085 ft 424 kts 325°
2026-05-06 08:16 58.62739 -6.99750 36092 ft 424 kts 325°
2026-05-06 08:16 58.67804 -7.05534 36083 ft 424 kts 325°
2026-05-06 08:17 58.72870 -7.11326 36084 ft 424 kts 325°
2026-05-06 08:17 58.77941 -7.17136 36084 ft 424 kts 325°
2026-05-06 08:18 58.83002 -7.22959 36112 ft 424 kts 325°
2026-05-06 08:18 58.88061 -7.28804 36114 ft 424 kts 324°
2026-05-06 08:19 58.93117 -7.34670 36105 ft 424 kts 324°
2026-05-06 08:19 58.98174 -7.40555 36093 ft 424 kts 324°
2026-05-06 08:20 59.03225 -7.46444 36086 ft 424 kts 324°
2026-05-06 08:20 59.08282 -7.52356 36084 ft 424 kts 324°
2026-05-06 08:21 59.13325 -7.58309 36105 ft 424 kts 324°
2026-05-06 08:21 59.18366 -7.64273 36092 ft 424 kts 324°
2026-05-06 08:22 59.23422 -7.70243 36085 ft 425 kts 324°
2026-05-06 08:22 59.28469 -7.76239 36063 ft 424 kts 324°
2026-05-06 08:23 59.33508 -7.82243 36069 ft 424 kts 324°
2026-05-06 08:23 59.38543 -7.88272 36109 ft 424 kts 324°
2026-05-06 08:24 59.43575 -7.94317 36092 ft 424 kts 324°
2026-05-06 08:24 59.48611 -8.00398 36083 ft 425 kts 324°
2026-05-06 08:25 59.53649 -8.06488 36080 ft 425 kts 324°
2026-05-06 08:25 59.58681 -8.12589 36077 ft 425 kts 324°
2026-05-06 08:26 59.63682 -8.18681 36109 ft 425 kts 324°
2026-05-06 08:26 59.68717 -8.24819 36098 ft 425 kts 324°
2026-05-06 08:27 59.73750 -8.30996 36088 ft 425 kts 324°
2026-05-06 08:27 59.78781 -8.37189 36087 ft 426 kts 324°
2026-05-06 08:28 59.83808 -8.43398 36082 ft 426 kts 324°
2026-05-06 08:28 59.88839 -8.49634 36068 ft 426 kts 324°
2026-05-06 08:29 59.93861 -8.55895 36091 ft 426 kts 324°
2026-05-06 08:29 59.98893 -8.62178 36085 ft 427 kts 324°
2026-05-06 08:30 60.03922 -8.68471 36069 ft 426 kts 324°
2026-05-06 08:30 60.08941 -8.74795 36077 ft 426 kts 324°
2026-05-06 08:31 60.13962 -8.81127 36076 ft 426 kts 324°
2026-05-06 08:31 60.18978 -8.87483 36100 ft 426 kts 324°
2026-05-06 08:32 60.23994 -8.93860 36082 ft 427 kts 324°
2026-05-06 08:32 60.29010 -9.00259 36070 ft 427 kts 324°
2026-05-06 08:33 60.34025 -9.06699 36066 ft 427 kts 324°
2026-05-06 08:33 60.39034 -9.13152 36062 ft 427 kts 324°
2026-05-06 08:34 60.46565 -9.22869 36079 ft 428 kts 324°
2026-05-06 08:35 60.51597 -9.29390 36072 ft 429 kts 324°
2026-05-06 08:35 60.56623 -9.35939 36058 ft 429 kts 324°
2026-05-06 08:36 60.61606 -9.42511 36057 ft 430 kts 323°
2026-05-06 08:36 60.66477 -9.49546 36070 ft 429 kts 321°
2026-05-06 08:37 60.71275 -9.56827 36092 ft 430 kts 321°
2026-05-06 08:37 60.76089 -9.64095 36073 ft 430 kts 321°
2026-05-06 08:38 60.80928 -9.71311 36067 ft 431 kts 321°
2026-05-06 08:38 60.85777 -9.78538 36082 ft 431 kts 321°
2026-05-06 08:39 60.90620 -9.85796 36070 ft 431 kts 321°
2026-05-06 08:39 60.95455 -9.93102 36083 ft 431 kts 321°
2026-05-06 08:40 60.99964 -10.01147 36083 ft 428 kts 308°
2026-05-06 08:40 61.03141 -10.11457 36068 ft 427 kts 298°
2026-05-06 08:41 61.06050 -10.22151 36065 ft 428 kts 298°
2026-05-06 08:41 61.08973 -10.32879 36064 ft 429 kts 298°
2026-05-06 08:42 61.11883 -10.43648 36067 ft 429 kts 298°
2026-05-06 08:42 61.14772 -10.54438 36062 ft 429 kts 298°
2026-05-06 08:43 61.17655 -10.65242 36070 ft 428 kts 298°
2026-05-06 08:43 61.20538 -10.76052 36074 ft 428 kts 298°
2026-05-06 08:44 61.23409 -10.86884 36073 ft 428 kts 298°
2026-05-06 08:44 61.26270 -10.97735 36071 ft 428 kts 298°
2026-05-06 08:45 61.29103 -11.08543 36072 ft 428 kts 298°
2026-05-06 08:45 61.31966 -11.19500 36071 ft 428 kts 298°
2026-05-06 08:46 61.34800 -11.30406 36078 ft 428 kts 297°
2026-05-06 08:46 61.37620 -11.41336 36077 ft 428 kts 297°
2026-05-06 08:47 61.40424 -11.52258 36079 ft 427 kts 297°
2026-05-06 08:47 61.43209 -11.63132 36088 ft 428 kts 297°
2026-05-06 08:48 61.46010 -11.74115 36064 ft 429 kts 297°
2026-05-06 08:48 61.48809 -11.85157 36059 ft 429 kts 297°
2026-05-06 08:49 61.51594 -11.96218 36052 ft 430 kts 297°
2026-05-06 08:49 61.54380 -12.07319 36051 ft 430 kts 297°
2026-05-06 08:50 61.57156 -12.18435 36056 ft 430 kts 297°
2026-05-06 08:50 61.59918 -12.29579 36058 ft 430 kts 297°
2026-05-06 08:51 61.62671 -12.40756 36065 ft 430 kts 297°
2026-05-06 08:51 61.65427 -12.51920 36085 ft 430 kts 297°
2026-05-06 08:52 61.68172 -12.63135 36062 ft 431 kts 296°
2026-05-06 08:52 61.70908 -12.74404 36057 ft 432 kts 296°
2026-05-06 08:53 61.73634 -12.85686 36054 ft 432 kts 296°
2026-05-06 08:53 61.76356 -12.97005 36041 ft 432 kts 296°
2026-05-06 08:54 61.79077 -13.08347 36050 ft 433 kts 296°
2026-05-06 08:54 61.81789 -13.19711 36054 ft 433 kts 296°
2026-05-06 08:55 61.84491 -13.31099 36055 ft 433 kts 296°
2026-05-06 08:55 61.87187 -13.42508 36081 ft 433 kts 296°
2026-05-06 08:56 61.89872 -13.53947 36063 ft 434 kts 296°
2026-05-06 08:56 61.92556 -13.65454 36053 ft 435 kts 296°
2026-05-06 08:57 61.95227 -13.76991 36044 ft 436 kts 296°
2026-05-06 08:57 61.97439 -13.86607 36054 ft 436 kts 296°
2026-05-06 08:58 62.00095 -13.98193 36057 ft 436 kts 295°
2026-05-06 08:58 62.02758 -14.09805 36061 ft 436 kts 295°
2026-05-06 08:59 62.05406 -14.21428 36070 ft 436 kts 295°
2026-05-06 08:59 62.08041 -14.33101 36069 ft 436 kts 295°
2026-05-06 09:00 62.10663 -14.44772 36076 ft 436 kts 295°
2026-05-06 09:00 62.13278 -14.56479 36070 ft 437 kts 295°
2026-05-06 09:01 62.15889 -14.68191 36068 ft 436 kts 295°
2026-05-06 09:01 62.18480 -14.79903 36077 ft 435 kts 295°
2026-05-06 09:02 62.21061 -14.91654 36079 ft 436 kts 295°
2026-05-06 09:02 62.23633 -15.03425 36090 ft 435 kts 295°
2026-05-06 09:03 62.26196 -15.15187 36082 ft 436 kts 295°
2026-05-06 09:03 62.28750 -15.26995 36075 ft 436 kts 295°
2026-05-06 09:04 62.31286 -15.38804 36117 ft 434 kts 295°
2026-05-06 09:04 62.33816 -15.50604 36093 ft 434 kts 295°
2026-05-06 09:05 62.36338 -15.62437 36080 ft 436 kts 295°
2026-05-06 09:05 62.38854 -15.74340 36066 ft 438 kts 294°
2026-05-06 09:06 62.41362 -15.86319 36072 ft 438 kts 294°
2026-05-06 09:06 62.43844 -15.98188 36091 ft 432 kts 294°
2026-05-06 09:07 62.46291 -16.09970 36093 ft 430 kts 294°
2026-05-06 09:07 62.48743 -16.21853 36091 ft 434 kts 294°
2026-05-06 09:08 62.51204 -16.33788 36097 ft 431 kts 295°
2026-05-06 09:08 62.53626 -16.45623 36096 ft 429 kts 294°
2026-05-06 09:09 62.56029 -16.57487 36094 ft 431 kts 294°
2026-05-06 09:09 62.58437 -16.69407 36090 ft 432 kts 294°
2026-05-06 09:10 62.60851 -16.81408 36076 ft 435 kts 294°
2026-05-06 09:10 62.63254 -16.93440 36122 ft 434 kts 294°
2026-05-06 09:11 62.65650 -17.05516 36093 ft 436 kts 294°
2026-05-06 09:11 62.68040 -17.17639 36105 ft 436 kts 294°
2026-05-06 09:12 62.70404 -17.29751 36088 ft 439 kts 294°
2026-05-06 09:12 62.72785 -17.41978 36123 ft 438 kts 294°
2026-05-06 09:13 62.75166 -17.54216 36105 ft 439 kts 294°
2026-05-06 09:13 62.77536 -17.66496 36130 ft 439 kts 294°
2026-05-06 09:14 62.79882 -17.78773 36151 ft 437 kts 294°
2026-05-06 09:14 62.82202 -17.91023 36148 ft 436 kts 293°
2026-05-06 09:15 62.84519 -18.03296 36127 ft 437 kts 293°
2026-05-06 09:15 62.86839 -18.15601 36138 ft 437 kts 294°
2026-05-06 09:16 62.89143 -18.27940 36116 ft 439 kts 293°
2026-05-06 09:16 62.91440 -18.40386 36122 ft 441 kts 293°
2026-05-06 09:17 62.93747 -18.52876 36133 ft 442 kts 293°
2026-05-06 09:17 62.96036 -18.65394 36156 ft 441 kts 294°
2026-05-06 09:18 62.98542 -18.77705 36131 ft 441 kts 302°
2026-05-06 09:18 63.02097 -18.88695 36157 ft 440 kts 307°
2026-05-06 09:19 63.05689 -18.99616 36159 ft 440 kts 306°
2026-05-06 09:19 63.09274 -19.10600 36152 ft 442 kts 306°
2026-05-06 09:20 63.12858 -19.21664 36144 ft 442 kts 307°
2026-05-06 09:20 63.16425 -19.32720 36156 ft 441 kts 307°
2026-05-06 09:20 63.18205 -19.38261 35890 ft 443 kts 307°
2026-05-06 09:21 63.19993 -19.43837 35045 ft 444 kts 307°
2026-05-06 09:21 63.21786 -19.49426 34199 ft 445 kts 307°
2026-05-06 09:21 63.23581 -19.55028 33197 ft 447 kts 306°
2026-05-06 09:21 63.25381 -19.60658 32337 ft 446 kts 307°
2026-05-06 09:22 63.27177 -19.66297 31410 ft 449 kts 307°
2026-05-06 09:22 63.28984 -19.71990 30452 ft 452 kts 307°
2026-05-06 09:22 63.30802 -19.77733 29299 ft 456 kts 307°
2026-05-06 09:22 63.32621 -19.83494 28237 ft 456 kts 306°
2026-05-06 09:23 63.34443 -19.89285 27143 ft 457 kts 306°
2026-05-06 09:23 63.36270 -19.95121 25979 ft 461 kts 307°
2026-05-06 09:23 63.38087 -20.00955 25321 ft 454 kts 306°
2026-05-06 09:23 63.39877 -20.06718 24541 ft 450 kts 307°
2026-05-06 09:24 63.41652 -20.12433 23782 ft 447 kts 307°
2026-05-06 09:24 63.43425 -20.18131 22951 ft 444 kts 307°
2026-05-06 09:24 63.45170 -20.23744 22262 ft 437 kts 306°
2026-05-06 09:24 63.46889 -20.29295 21584 ft 432 kts 306°
2026-05-06 09:25 63.48581 -20.34779 20922 ft 426 kts 306°
2026-05-06 09:25 63.50253 -20.40207 20274 ft 421 kts 306°
2026-05-06 09:25 63.51899 -20.45569 19657 ft 416 kts 307°
2026-05-06 09:25 63.53511 -20.50826 19066 ft 412 kts 306°
2026-05-06 09:26 63.55062 -20.56281 18476 ft 409 kts 300°
2026-05-06 09:26 63.56191 -20.62016 17883 ft 406 kts 290°
2026-05-06 09:26 63.56977 -20.68130 17364 ft 400 kts 287°
2026-05-06 09:26 63.57697 -20.74042 16866 ft 395 kts 287°
2026-05-06 09:27 63.58419 -20.79940 16363 ft 389 kts 286°
2026-05-06 09:27 63.59135 -20.85773 15870 ft 384 kts 286°
2026-05-06 09:27 63.59839 -20.91520 15396 ft 380 kts 287°
2026-05-06 09:27 63.60533 -20.97201 14904 ft 375 kts 287°
2026-05-06 09:28 63.61208 -21.02828 14413 ft 371 kts 286°
2026-05-06 09:28 63.61874 -21.08394 13891 ft 367 kts 286°
2026-05-06 09:28 63.62531 -21.13910 13368 ft 363 kts 286°
2026-05-06 09:28 63.63181 -21.19354 12827 ft 358 kts 287°
2026-05-06 09:29 63.63825 -21.24731 12316 ft 354 kts 287°
2026-05-06 09:29 63.64454 -21.30055 11760 ft 350 kts 286°
2026-05-06 09:29 63.65077 -21.35326 11285 ft 345 kts 288°
2026-05-06 09:29 63.65676 -21.40442 11155 ft 331 kts 288°
2026-05-06 09:30 63.66243 -21.45342 11006 ft 317 kts 288°
2026-05-06 09:30 63.66787 -21.50062 10888 ft 305 kts 289°
2026-05-06 09:30 63.67312 -21.54603 10757 ft 294 kts 289°
2026-05-06 09:30 63.67824 -21.58995 10535 ft 287 kts 287°
2026-05-06 09:31 63.68330 -21.63331 10266 ft 286 kts 287°
2026-05-06 09:31 63.68831 -21.67638 10080 ft 284 kts 291°
2026-05-06 09:31 63.69332 -21.71950 9941 ft 284 kts 288°
2026-05-06 09:31 63.69830 -21.76261 9794 ft 285 kts 288°
2026-05-06 09:32 63.70323 -21.80577 9660 ft 284 kts 289°
2026-05-06 09:32 63.70815 -21.84887 9469 ft 283 kts 287°
2026-05-06 09:32 63.71303 -21.89172 9111 ft 281 kts 287°
2026-05-06 09:32 63.71789 -21.93441 8729 ft 280 kts 287°
2026-05-06 09:33 63.72271 -21.97693 8358 ft 279 kts 287°
2026-05-06 09:33 63.72746 -22.01932 7985 ft 278 kts 287°
2026-05-06 09:33 63.73221 -22.06178 7612 ft 279 kts 287°
2026-05-06 09:33 63.73694 -22.10413 7237 ft 277 kts 287°
2026-05-06 09:34 63.74168 -22.14658 6723 ft 282 kts 288°
2026-05-06 09:34 63.74649 -22.18966 6201 ft 283 kts 288°
2026-05-06 09:34 63.75133 -22.23340 5647 ft 286 kts 287°
2026-05-06 09:34 63.75605 -22.27637 5371 ft 276 kts 287°
2026-05-06 09:35 63.76048 -22.31711 5047 ft 262 kts 289°
2026-05-06 09:35 63.76488 -22.35647 4760 ft 252 kts 293°
2026-05-06 09:35 63.77193 -22.39113 4637 ft 236 kts 309°
2026-05-06 09:35 63.78193 -22.41994 4277 ft 233 kts 316°
2026-05-06 09:36 63.79239 -22.44792 3981 ft 232 kts 317°
2026-05-06 09:36 63.80254 -22.47542 3689 ft 230 kts 317°
2026-05-06 09:36 63.81281 -22.50347 3406 ft 224 kts 315°
2026-05-06 09:36 63.82246 -22.52998 3127 ft 212 kts 316°
2026-05-06 09:37 63.83151 -22.55492 2900 ft 198 kts 317°
2026-05-06 09:37 63.83996 -22.57821 2617 ft 183 kts 318°
2026-05-06 09:37 63.84878 -22.59535 2478 ft 154 kts 341°
2026-05-06 09:37 63.85800 -22.60384 2362 ft 136 kts 357°
2026-05-06 09:38 63.86708 -22.60553 2203 ft 128 kts 11°
2026-05-06 09:38 63.87595 -22.60553 2029 ft 127 kts
2026-05-06 09:38 63.88470 -22.60552 1856 ft 125 kts
2026-05-06 09:38 63.89342 -22.60552 1681 ft 125 kts
2026-05-06 09:39 63.90205 -22.60552 1510 ft 122 kts
2026-05-06 09:39 63.91067 -22.60550 1337 ft 124 kts
2026-05-06 09:39 63.91931 -22.60549 1141 ft 124 kts